This demonstration page uses our WeatherBlox Daily Observations layout. Learn more.

Left ArrowRight Arrow

39.51506, -84.39828

Hourly Observations for July 31, 2021

Temp ( °F °C ) Dew Point ( °F °C ) Humidity (%) Winds ( mph kmh ) Pressure ( in mb ) Visibility ( mi km ) Precip ( " mm )
12:15 am 00:15 Partly Cloudy N/A N/A N/A N 3 6 N/A 10 16 N/A
12:35 am 00:35 Clear N/A N/A N/A NNE 3 6 N/A 10 16 N/A
12:55 am 00:55 Clear N/A N/A N/A N 5 7 N/A 10 16 N/A
1:15 am 01:15 Clear N/A N/A N/A N 5 7 N/A 10 16 N/A
1:35 am 01:35 Clear N/A N/A N/A N 6 9 N/A 10 16 N/A
1:55 am 01:55 Clear N/A N/A N/A N 5 7 N/A 10 16 N/A
2:15 am 02:15 Clear N/A N/A N/A N 6 9 N/A 10 16 N/A
2:35 am 02:35 Clear N/A N/A N/A NE 6 9 N/A 10 16 N/A
2:55 am 02:55 Clear N/A N/A N/A N N/A N/A 10 16 N/A
3:15 am 03:15 Partly Cloudy 67 19.3 64 18 92 92 NNW 3 6 30.05 1017 10 16 N/A
3:35 am 03:35 Clear 67 19.3 64 17.7 91 91 N 5 7 30.05 1017 10 16 N/A
3:55 am 03:55 Clear 66 19.1 64 17.6 91 91 NNE 3 6 30.05 1017 10 16 N/A
4:15 am 04:15 Partly Cloudy N/A N/A N/A NNE 3 6 N/A 10 16 N/A
4:35 am 04:35 Partly Cloudy 66 19.1 64 17.7 92 92 ENE 3 6 30.04 1017 10 16 N/A
4:55 am 04:55 Cloudy 67 19.2 64 17.7 91 91 N 6 9 30.04 1017 10 16 N/A
5:15 am 05:15 Partly Cloudy 66 19.1 64 17.8 92 92 NNE 5 7 30.03 1017 10 16 N/A
5:35 am 05:35 Clear 66 18.9 64 17.7 93 93 NNE 3 6 30.04 1017 10 16 N/A
5:55 am 05:55 Clear 66 18.9 64 17.8 93 93 NNE 3 6 30.03 1017 10 16 N/A
6:15 am 06:15 Partly Cloudy 66 18.8 64 17.9 95 95 NNE 3 6 30.04 1017 10 16 N/A
6:35 am 06:35 Clear 65 18.6 64 17.9 96 96 N N/A 30.03 1017 10 16 N/A
6:55 am 06:55 Partly Cloudy 65 18.6 65 18.1 97 97 N N/A 30.04 1017 10 16 N/A
7:15 am 07:15 Mostly Cloudy 66 18.8 65 18.2 96 96 N N/A 30.04 1017 10 16 N/A
7:35 am 07:35 Cloudy 66 19 65 18.3 96 96 N N/A 30.04 1017 10 16 N/A
7:55 am 07:55 Cloudy 67 19.2 65 18.4 95 95 N N/A 30.04 1017 10 16 N/A
8:15 am 08:15 Cloudy 67 19.5 65 18.2 92 92 N N/A 30.05 1017 10 16 N/A
8:35 am 08:35 Partly Cloudy 68 19.9 65 18.5 92 92 N N/A 30.04 1017 10 16 N/A
8:55 am 08:55 Partly Cloudy 69 20.3 66 18.7 91 91 N 3 6 30.04 1017 10 16 N/A
9:15 am 09:15 Partly Cloudy 70 21.3 64 18 82 82 ENE 5 7 30.04 1017 10 16 N/A
9:35 am 09:35 Partly Cloudy 72 22.3 63 17 72 72 ESE 3 6 30.04 1017 10 16 N/A
9:55 am 09:55 Hazy 73 22.7 62 16.7 69 69 SE 6 9 30.03 1017 7 11 N/A
10:15 am 10:15 Sunny 74 23.1 62 16.9 68 68 SE 5 7 30.02 1017 10 16 N/A
10:35 am 10:35 Mostly Cloudy 74 23.1 63 17 69 69 SSE 7 11 30.02 1017 10 16 N/A
10:55 am 10:55 Sunny 76 24.3 63 17.2 65 65 S 7 11 30.01 1016 10 16 N/A
11:15 am 11:15 Sunny 76 24.2 63 17.4 66 66 SW 3 6 30.01 1016 10 16 N/A
11:35 am 11:35 Sunny N/A N/A N/A W 7 11 N/A 10 16 N/A
11:55 am 11:55 Sunny N/A N/A N/A WSW 8 13 N/A 10 16 N/A
12:15 pm 12:15 Sunny N/A N/A N/A WSW 9 15 N/A 10 16 N/A
12:35 pm 12:35 Sunny N/A N/A N/A WSW 7 11 N/A 10 16 N/A
12:55 pm 12:55 Mostly Cloudy N/A N/A N/A WSW 6 9 N/A 10 16 N/A
1:15 pm 13:15 Cloudy N/A N/A N/A WSW 10 17 N/A 10 16 N/A
1:35 pm 13:35 Cloudy N/A N/A N/A WSW 10 17 N/A 10 16 N/A
1:55 pm 13:55 Cloudy N/A N/A N/A WSW 10 17 N/A 10 16 N/A
2:15 pm 14:15 Sunny N/A N/A N/A WSW 12 19 N/A 10 16 N/A
2:35 pm 14:35 Sunny N/A N/A N/A W 9 15 N/A 10 16 N/A
2:55 pm 14:55 Partly Cloudy N/A N/A N/A W 14 22 N/A 10 16 N/A
3:15 pm 15:15 Sunny N/A N/A N/A WSW 9 15 N/A 10 16 N/A
3:35 pm 15:35 Partly Cloudy N/A N/A N/A W 10 17 N/A 10 16 N/A
3:55 pm 15:55 Cloudy N/A N/A N/A WNW 7 11 N/A 10 16 N/A
4:15 pm 16:15 Cloudy N/A N/A N/A W 8 13 N/A 10 16 N/A
4:35 pm 16:35 Cloudy N/A N/A N/A W 8 13 N/A 10 16 N/A
4:55 pm 16:55 Cloudy N/A N/A N/A WNW 5 7 N/A 10 16 N/A
5:15 pm 17:15 Cloudy N/A N/A N/A WNW 7 11 N/A 10 16 N/A
5:35 pm 17:35 Mostly Cloudy N/A N/A N/A WNW 8 13 N/A 10 16 N/A
5:55 pm 17:55 Cloudy N/A N/A N/A W 7 11 N/A 10 16 N/A
6:15 pm 18:15 Mostly Cloudy N/A N/A N/A W 10 17 N/A 10 16 N/A
6:35 pm 18:35 Cloudy N/A N/A N/A W 9 15 N/A 10 16 N/A
6:55 pm 18:55 Partly Cloudy N/A N/A N/A W 9 15 N/A 10 16 N/A
7:15 pm 19:15 Sunny N/A N/A N/A WSW 6 9 N/A 10 16 N/A
7:35 pm 19:35 Cloudy N/A N/A N/A WSW 5 7 N/A 10 16 N/A
7:55 pm 19:55 Cloudy N/A N/A N/A W 7 11 N/A 10 16 N/A
8:15 pm 20:15 Cloudy N/A N/A N/A W 6 9 N/A 10 16 N/A
8:35 pm 20:35 Cloudy N/A N/A N/A WSW 6 9 N/A 10 16 N/A
8:55 pm 20:55 Partly Cloudy N/A N/A N/A WSW 6 9 N/A 10 16 N/A
9:15 pm 21:15 Clear N/A N/A N/A WSW 6 9 N/A 10 16 N/A
9:35 pm 21:35 Clear 65 18.6 64 17.6 94 94 WSW 5 7 29.96 1014 10 16 N/A
9:55 pm 21:55 Clear 66 18.7 65 18.5 99 99 N N/A 29.97 1015 10 16 N/A
10:15 pm 22:15 Clear 65 18.3 64 17.8 97 97 N N/A 29.97 1015 10 16 N/A
10:35 pm 22:35 Clear 64 17.9 63 17.4 97 97 W 3 6 29.97 1015 10 16 N/A
10:55 pm 22:55 Clear 65 18.3 64 17.5 95 95 SSW 3 6 29.97 1015 10 16 N/A
11:15 pm 23:15 Clear 65 18.3 63 17.1 93 93 SW 3 6 29.96 1015 10 16 N/A
11:35 pm 23:35 Mostly Cloudy 65 18.1 63 17.3 95 95 WSW 3 6 29.96 1015 10 16 N/A
11:55 pm 23:55 Mostly Cloudy 64 17.7 63 17.3 98 98 SW 3 6 29.96 1015 10 16 N/A

Powered by AerisWeather